カタログに戻る

STARLINK-5458

運用中通信VLEO
NORAD 54764·PAYLOAD·🇺🇸 United States

打ち上げ Dec 17, 2022 から Cape Canaveral Space Force Station

Loading…

次のパス (今後24時間)

TLE

最新Source: CelesTrak SupGP

元期: Sep 15, 2026, 02:05 UTC

1 54764C 22175G   26258.08729167 -.00011110  00000+0 -32823-3 0  2580
2 54764  53.1574 263.0303 0001347  91.8040  46.9249 15.34398866    15

AllMySatでSTARLINK-5458をリアルタイム追跡

Download on the App Store